EW4338 Weather Reports


time (UTC)temp
F
wind
direction
speed
knots
gust
knots
rain 1hr
in
rain 24hr
in
rain mn
in
humidity
%
barometer
mb
20240222104506 32 9 0.9 2.6 0.00 0.00 0.00 86 1022.6
20240222104006 32 9 0.9 1.7 0.00 0.00 0.00 86 1022.6
20240222103505 32 9 0.0 1.7 0.00 0.00 0.00 86 1022.6
20240222103005 31 9 0.9 1.7 0.00 0.00 0.00 87 1022.7
20240222102504 32 9 0.0 1.7 0.00 0.00 0.00 87 1022.7
20240222102003 31 9 0.0 1.7 0.00 0.00 0.00 87 1022.6
20240222101503 31 17 0.0 0.0 0.00 0.00 0.00 87 1022.4
20240222101001 31 17 0.0 2.6 0.00 0.00 0.00 87 1022.2
20240222100501 31 17 0.0 2.6 0.00 0.00 0.00 87 1022.3
20240222100101 31 17 0.9 2.6 0.00 0.00 0.00 87 1022.1
20240222095600 31 17 0.0 2.6 0.00 0.00 0.00 87 1022.1
20240222095059 31 17 0.9 5.2 0.00 0.00 0.00 87 1022.0
20240222094559 31 17 0.0 5.2 0.00 0.00 0.00 88 1021.9
20240222094058 31 27 0.9 5.2 0.00 0.00 0.00 88 1021.9
20240222093557 31 36 0.0 9.6 0.00 0.00 0.00 88 1021.8
20240222093057 31 7 4.3 9.6 0.00 0.00 0.00 89 1021.6
20240222092558 31 323 0.9 7.0 0.00 0.00 0.00 88 1021.7
20240222092057 31 347 1.7 7.0 0.00 0.00 0.00 89 1021.6
20240222091554 30 17 3.5 7.0 0.00 0.00 0.00 88 1021.4
20240222091054 30 356 2.6 7.0 0.00 0.00 0.00 89 1021.5
20240222090558 30 356 2.6 5.2 0.00 0.00 0.00 88 1021.5
20240222090053 30 11 1.7 5.2 0.00 0.00 0.00 88 1021.2
20240222085552 30 337 2.6 5.2 0.00 0.00 0.00 88 1021.2
20240222085056 30 356 2.6 6.1 0.00 0.00 0.00 89 1021.1
20240222084551 30 20 1.7 6.1 0.00 0.00 0.00 88 1021.2
20240222084051 29 21 1.7 4.3 0.00 0.00 0.00 88 1021.2
20240222083550 30 11 1.7 7.0 0.00 0.00 0.00 88 1021.1
20240222083048 30 4 3.5 7.8 0.00 0.00 0.00 88 1021.0
20240222082548 30 29 2.6 7.8 0.00 0.00 0.00 88 1021.0
20240222082048 30 23 3.5 7.8 0.00 0.00 0.00 88 1020.9
20240222081546 30 17 5.2 7.8 0.00 0.00 0.00 88 1020.8
20240222081046 30 21 3.5 9.6 0.00 0.00 0.00 87 1020.6
20240222080545 30 1 5.2 7.8 0.00 0.00 0.00 87 1020.6
20240222080043 30 351 3.5 5.2 0.00 0.00 0.00 87 1020.6
20240222075543 30 21 0.9 5.2 0.00 0.00 0.00 87 1020.6
20240222075045 30 5 0.9 6.1 0.00 0.00 0.00 87 1020.6
20240222074542 30 329 2.6 5.2 0.00 0.00 0.00 87 1020.8
20240222074042 30 356 2.6 4.3 0.00 0.00 0.00 86 1020.7
20240222073542 30 358 1.7 6.1 0.00 0.00 0.00 86 1020.7
20240222073040 30 11 2.6 6.1 0.00 0.00 0.00 85 1020.8
20240222072541 30 13 2.6 6.1 0.00 0.00 0.00 85 1020.8
20240222072038 30 10 2.6 4.3 0.00 0.00 0.00 84 1020.7
20240222071542 30 358 2.6 5.2 0.00 0.00 0.00 84 1020.5
20240222071035 30 338 2.6 3.5 0.00 0.00 0.00 83 1020.7
20240222070536 30 53 0.0 4.3 0.00 0.00 0.00 82 1020.5
20240222070032 31 53 0.9 4.3 0.00 0.00 0.00 82 1020.4
20240222065533 31 82 0.0 4.3 0.00 0.00 0.00 81 1020.4
20240222065034 31 97 0.0 4.3 0.00 0.00 0.00 81 1020.3
20240222064531 31 35 0.0 1.7 0.00 0.00 0.00 80 1020.5
20240222064031 31 32 0.0 2.6 0.00 0.00 0.00 80 1020.4
20240222063534 31 32 0.0 2.6 0.00 0.00 0.00 80 1020.3
20240222063030 31 31 0.0 4.3 0.00 0.00 0.00 79 1020.4
20240222062529 31 31 0.9 4.3 0.00 0.00 0.00 77 1020.3
20240222062028 31 46 0.9 3.5 0.00 0.00 0.00 76 1020.1
20240222061527 32 10 0.9 4.3 0.00 0.00 0.00 75 1020.2
20240222061026 32 10 3.5 4.3 0.00 0.00 0.00 75 1020.1
20240222060526 32 92 0.0 3.5 0.00 0.00 0.00 73 1020.3
20240222060026 33 93 0.9 3.5 0.00 0.00 0.00 72 1020.1
20240222055524 33 84 0.0 5.2 0.00 0.00 0.00 70 1020.3
20240222055023 33 82 3.5 7.0 0.00 0.00 0.00 70 1020.1
20240222054523 33 191 1.7 7.0 0.00 0.00 0.00 70 1020.3
20240222054022 33 97 0.9 3.5 0.00 0.00 0.00 70 1020.3
20240222053522 33 58 0.0 1.7 0.00 0.00 0.00 69 1020.2
20240222053021 33 58 0.0 6.1 0.00 0.00 0.00 68 1020.3
20240222052520 33 58 0.9 6.1 0.00 0.00 0.00 67 1020.1
20240222052019 34 65 1.7 5.2 0.00 0.00 0.00 66 1020.3
20240222051522 34 80 0.0 5.2 0.00 0.00 0.00 65 1020.2
20240222051016 35 73 1.7 6.1 0.00 0.00 0.00 64 1019.9
20240222050517 35 74 1.7 6.1 0.00 0.00 0.00 62 1019.9
20240222050031 36 69 2.6 7.0 0.00 0.00 0.00 60 1019.7
20240222045512 37 91 4.3 7.0 0.00 0.00 0.00 58 1019.6
20240222045012 36 80 1.7 6.1 0.00 0.00 0.00 58 1019.4
20240222044512 36 41 2.6 6.1 0.00 0.00 0.00 58 1019.4
20240222044013 36 42 0.0 2.6 0.00 0.00 0.00 57 1019.5
20240222043509 37 46 1.7 3.5 0.00 0.00 0.00 56 1019.4
20240222043010 37 76 0.9 2.6 0.00 0.00 0.00 56 1019.3
20240222042510 37 76 0.0 2.6 0.00 0.00 0.00 55 1019.2
20240222042009 38 76 0.9 2.6 0.00 0.00 0.00 54 1019.2
20240222041509 38 94 0.0 1.7 0.00 0.00 0.00 53 1019.2
20240222041010 38 94 0.0 3.5 0.00 0.00 0.00 53 1019.2
20240222040509 38 94 1.7 3.5 0.00 0.00 0.00 53 1019.0
20240222040009 38 175 0.0 1.7 0.00 0.00 0.00 54 1019.0
20240222035509 38 175 0.0 1.7 0.00 0.00 0.00 53 1018.9
20240222035009 38 175 0.0 3.5 0.00 0.00 0.00 54 1018.8
20240222034513 38 168 1.7 3.5 0.00 0.00 0.00 54 1018.7
20240222034010 38 134 1.7 3.5 0.00 0.00 0.00 53 1018.5
20240222033510 38 235 0.0 0.9 0.00 0.00 0.00 53 1018.5
20240222033007 38 235 0.0 4.3 0.00 0.00 0.00 54 1018.6
20240222032508 37 235 0.9 8.7 0.00 0.00 0.00 56 1018.5
20240222032008 37 279 2.6 8.7 0.00 0.00 0.00 58 1018.6
20240222031506 37 257 4.3 8.7 0.00 0.00 0.00 57 1018.4
20240222031005 37 248 0.9 4.3 0.00 0.00 0.00 56 1018.2
20240222030504 38 230 1.7 3.5 0.00 0.00 0.00 57 1018.3
20240222030005 38 162 0.0 1.7 0.00 0.00 0.00 58 1018.2
20240222025505 38 162 0.0 6.1 0.00 0.00 0.00 58 1018.0
20240222025004 37 162 0.9 6.1 0.00 0.00 0.00 59 1017.9
20240222024505 37 60 0.9 6.1 0.00 0.00 0.00 58 1017.8
20240222024003 38 53 2.6 7.0 0.00 0.00 0.00 57 1017.5
20240222023500 38 40 2.6 7.0 0.00 0.00 0.00 54 1017.3
20240222023108 39 71 2.6 9.6 0.00 0.00 0.00 51 1017.3
20240222022600 39 111 5.2 9.6 0.00 0.00 0.00 50 1017.1
20240222022059 39 170 7.0 9.6 0.00 0.00 0.00 43 1017.0
20240222021559 40 167 4.3 10.4 0.00 0.00 0.00 36 1016.8
20240222021057 41 196 5.2 8.7 0.00 0.00 0.00 33 1016.8
20240222020557 42 88 0.9 8.7 0.00 0.00 0.00 30 1016.7
20240222020057 42 156 1.7 11.3 0.00 0.00 0.00 29 1016.8
20240222015558 42 281 5.2 11.3 0.00 0.00 0.00 30 1016.6
20240222015057 43 304 2.6 9.6 0.00 0.00 0.00 29 1016.6
20240222014559 43 337 5.2 13.0 0.00 0.00 0.00 29 1016.8
20240222014056 43 265 5.2 16.5 0.00 0.00 0.00 29 1016.9
20240222013556 43 205 9.6 16.5 0.00 0.00 0.00 29 1016.6
20240222013055 43 204 4.3 16.5 0.00 0.00 0.00 29 1016.7
20240222012557 43 261 8.7 17.4 0.00 0.00 0.00 29 1016.4
20240222012054 44 257 11.3 14.8 0.00 0.00 0.00 27 1016.4
20240222011557 44 265 3.5 11.3 0.00 0.00 0.00 26 1016.4
20240222011054 44 207 3.5 20.0 0.00 0.00 0.00 25 1016.6
20240222010557 44 260 12.2 18.2 0.00 0.00 0.00 27 1016.4
20240222010055 45 221 10.4 14.8 0.00 0.00 0.00 26 1016.3
20240222005555 45 191 3.5 10.4 0.00 0.00 0.00 25 1016.4
20240222005053 44 193 4.3 10.4 0.00 0.00 0.00 26 1016.3
20240222004556 45 192 1.7 3.5 0.00 0.00 0.00 26 1016.3
20240222004053 45 98 0.0 4.3 0.00 0.00 0.00 25 1016.2
20240222003553 45 98 1.7 12.2 0.00 0.00 0.00 25 1016.1
20240222003052 46 113 3.5 12.2 0.00 0.00 0.00 25 1015.8
20240222002552 45 75 2.6 10.4 0.00 0.00 0.00 24 1016.1
20240222002056 45 21 4.3 20.9 0.00 0.00 0.00 25 1015.8
20240222001551 45 179 9.6 23.5 0.00 0.00 0.00 24 1015.5
20240222001050 46 333 7.0 26.9 0.00 0.00 0.00 25 1015.6
20240222000551 46 300 13.9 32.2 0.00 0.00 0.00 24 1015.1
20240222000053 47 265 7.0 32.2 0.00 0.00 0.00 24 1014.9
20240221235551 47 154 6.1 26.1 0.00 0.00 0.00 24 1014.9
20240221235050 46 123 7.8 16.5 0.00 0.00 0.00 24 1015.4
20240221234606 47 53 3.5 14.8 0.00 0.00 0.00 23 1015.4
20240221234050 47 86 6.1 14.8 0.00 0.00 0.00 23 1015.4
20240221233550 47 53 6.1 13.0 0.00 0.00 0.00 24 1015.2
20240221233049 47 20 3.5 12.2 0.00 0.00 0.00 23 1015.5
20240221232549 47 19 5.2 9.6 0.00 0.00 0.00 24 1015.0
20240221232048 48 335 4.3 8.7 0.00 0.00 0.00 24 1015.0
20240221231548 48 300 0.9 31.3 0.00 0.00 0.00 21 1014.9
20240221231048 48 343 14.8 35.6 0.00 0.00 0.00 22 1014.4
20240221230548 48 205 13.0 36.5 0.00 0.00 0.00 22 1014.3
20240221230048 48 244 17.4 39.1 0.00 0.00 0.00 21 1014.0
20240221225547 48 195 23.5 41.7 0.00 0.00 0.00 21 1013.6
20240221225048 48 265 20.0 41.7 0.00 0.00 0.00 21 1013.4
20240221224547 49 235 20.9 40.0 0.00 0.00 0.00 22 1012.9
20240221224046 48 240 20.9 43.4 0.00 0.00 0.00 21 1012.6
20240221223545 48 230 28.7 43.4 0.00 0.00 0.00 21 1011.9
20240221223044 47 218 19.1 38.2 0.00 0.00 0.00 22 1012.3
20240221222545 48 217 21.7 44.3 0.00 0.00 0.00 21 1012.5
20240221222044 49 235 27.8 44.3 0.00 0.00 0.00 21 1012.3
20240221221544 49 235 20.9 35.6 0.00 0.00 0.00 21 1012.4
20240221221043 49 225 19.1 33.9 0.00 0.00 0.00 20 1012.7
20240221220543 50 249 20.9 40.0 0.00 0.00 0.00 21 1012.8
20240221220043 50 223 25.2 37.4 0.00 0.00 0.00 20 1013.0
20240221215542 50 225 19.1 33.9 0.00 0.00 0.00 21 1013.1
20240221215042 49 179 21.7 34.8 0.00 0.00 0.00 21 1013.1
20240221214545 49 254 20.9 31.3 0.00 0.00 0.00 20 1013.3
20240221214041 50 258 16.5 26.9 0.00 0.00 0.00 20 1013.3
20240221213541 50 212 15.6 34.8 0.00 0.00 0.00 20 1013.2
20240221213040 50 201 20.9 34.8 0.00 0.00 0.00 18 1012.9
20240221212540 50 200 16.5 28.7 0.00 0.00 0.00 19 1013.1
20240221212039 51 257 21.7 28.7 0.00 0.00 0.00 18 1013.0
20240221211539 52 180 16.5 25.2 0.00 0.00 0.00 18 1013.2
20240221211039 52 188 14.8 33.0 0.00 0.00 0.00 18 1013.3
20240221210539 52 221 13.9 33.0 0.00 0.00 0.00 19 1013.4
20240221210050 52 200 19.1 31.3 0.00 0.00 0.00 18 1013.4
20240221205539 52 196 16.5 30.4 0.00 0.00 0.00 17 1013.4
20240221205038 53 249 20.0 30.4 0.00 0.00 0.00 17 1013.3
20240221204538 53 194 14.8 22.6 0.00 0.00 0.00 19 1013.6
20240221204041 53 198 13.9 23.5 0.00 0.00 0.00 19 1013.7
20240221203536 52 220 15.6 35.6 0.00 0.00 0.00 18 1013.6
20240221203035 52 230 21.7 35.6 0.00 0.00 0.00 17 1013.6
20240221202534 52 162 16.5 33.9 0.00 0.00 0.00 17 1013.7
20240221202035 52 230 16.5 28.7 0.00 0.00 0.00 18 1013.7
20240221201534 52 198 14.8 25.2 0.00 0.00 0.00 19 1013.9
20240221201034 52 193 14.8 33.0 0.00 0.00 0.00 18 1014.0
20240221200532 52 235 21.7 33.0 0.00 0.00 0.00 17 1013.8
20240221200033 52 186 15.6 29.5 0.00 0.00 0.00 20 1014.2
20240221195535 52 184 17.4 25.2 0.00 0.00 0.00 19 1014.2
20240221195033 51 213 14.8 36.5 0.00 0.00 0.00 20 1014.3
20240221194542 52 220 17.4 36.5 0.00 0.00 0.00 18 1014.1
20240221194034 52 223 17.4 29.5 0.00 0.00 0.00 20 1014.2
20240221193534 52 246 17.4 29.5 0.00 0.00 0.00 20 1014.6
20240221193030 52 230 13.9 27.8 0.00 0.00 0.00 19 1014.6
20240221192529 52 246 18.2 33.0 0.00 0.00 0.00 19 1014.6
20240221192030 51 202 21.7 33.0 0.00 0.00 0.00 18 1014.8
20240221191529 52 215 16.5 34.8 0.00 0.00 0.00 18 1014.7
20240221191029 52 186 19.1 34.8 0.00 0.00 0.00 18 1014.9
20240221190528 52 210 17.4 30.4 0.00 0.00 0.00 18 1015.1
20240221190031 52 245 13.0 30.4 0.00 0.00 0.00 18 1015.2
20240221185527 52 216 20.0 33.9 0.00 0.00 0.00 17 1015.0
20240221185026 51 202 17.4 33.9 0.00 0.00 0.00 18 1015.5
20240221184528 52 189 20.9 29.5 0.00 0.00 0.00 17 1015.4
20240221184026 52 251 15.6 26.9 0.00 0.00 0.00 19 1015.5
20240221183528 51 240 19.1 26.9 0.00 0.00 0.00 18 1015.7
20240221183024 52 208 17.4 28.7 0.00 0.00 0.00 18 1015.8
20240221182527 52 195 10.4 27.8 0.00 0.00 0.00 19 1016.0
20240221182022 51 205 13.9 27.8 0.00 0.00 0.00 20 1016.0
20240221181522 52 204 13.9 22.6 0.00 0.00 0.00 20 1016.0
20240221181020 51 240 12.2 22.6 0.00 0.00 0.00 20 1016.1
20240221180519 50 240 12.2 23.5 0.00 0.00 0.00 22 1016.3
20240221180029 49 183 13.0 28.7 0.00 0.00 0.00 22 1016.3
20240221175519 49 205 15.6 36.5 0.00 0.00 0.00 21 1016.4
20240221175019 49 220 23.5 36.5 0.00 0.00 0.00 20 1015.9
20240221174518 49 200 18.2 32.2 0.00 0.00 0.00 21 1016.4
20240221174018 50 235 15.6 32.2 0.00 0.00 0.00 22 1016.5
20240221173518 50 222 14.8 31.3 0.00 0.00 0.00 22 1016.5
20240221173016 50 177 18.2 31.3 0.00 0.00 0.00 21 1016.4
20240221172516 50 191 19.1 30.4 0.00 0.00 0.00 21 1016.6
20240221172015 50 245 18.2 29.5 0.00 0.00 0.00 22 1016.5
20240221171516 50 191 14.8 26.9 0.00 0.00 0.00 21 1016.9
20240221171015 50 247 16.5 27.8 0.00 0.00 0.00 22 1016.9
20240221170515 50 215 14.8 23.5 0.00 0.00 0.00 20 1017.0
20240221170013 49 201 13.0 36.5 0.00 0.00 0.00 21 1017.2
20240221165512 49 246 20.9 36.5 0.00 0.00 0.00 21 1017.1
20240221165010 49 240 13.9 31.3 0.00 0.00 0.00 20 1017.3
20240221164509 49 244 16.5 31.3 0.00 0.00 0.00 19 1017.3
20240221164008 49 211 14.8 26.9 0.00 0.00 0.00 20 1017.3
20240221163507 49 207 18.2 31.3 0.00 0.00 0.00 19 1017.4
20240221163002 49 240 19.1 31.3 0.00 0.00 0.00 20 1017.5
20240221162601 49 194 15.6 28.7 0.00 0.00 0.00 20 1017.5
20240221162104 49 213 19.1 29.5 0.00 0.00 0.00 20 1017.3
20240221161601 48 200 20.0 29.5 0.00 0.00 0.00 20 1017.3
20240221161057 48 181 14.8 21.7 0.00 0.00 0.00 21 1017.5
20240221160555 48 194 13.9 32.2 0.00 0.00 0.00 21 1017.5
20240221160052 48 259 17.4 26.9 0.00 0.00 0.00 21 1017.3
20240221155548 48 210 16.5 27.8 0.00 0.00 0.00 21 1017.5
20240221155046 48 219 18.2 27.8 0.00 0.00 0.00 21 1017.5
20240221154545 48 226 18.2 26.9 0.00 0.00 0.00 20 1017.4
20240221154044 47 218 13.9 25.2 0.00 0.00 0.00 22 1017.7
20240221153543 47 204 14.8 31.3 0.00 0.00 0.00 22 1017.4
20240221153044 47 200 17.4 31.3 0.00 0.00 0.00 21 1017.5
20240221152538 47 186 14.8 26.9 0.00 0.00 0.00 23 1017.6
20240221152037 47 240 14.8 25.2 0.00 0.00 0.00 24 1017.9
20240221151536 47 235 13.9 22.6 0.00 0.00 0.00 24 1017.8
20240221151035 47 226 12.2 22.6 0.00 0.00 0.00 25 1018.1
20240221150533 46 195 13.0 24.3 0.00 0.00 0.00 25 1018.0
20240221150033 46 179 14.8 24.3 0.00 0.00 0.00 25 1018.1
20240221145530 46 204 12.2 20.0 0.00 0.00 0.00 27 1018.3
20240221145028 45 219 10.4 16.5 0.00 0.00 0.00 28 1018.4
20240221144530 45 204 8.7 16.5 0.00 0.00 0.00 29 1018.6
20240221144025 44 211 8.7 13.0 0.00 0.00 0.00 30 1018.6
20240221143524 43 235 7.0 11.3 0.00 0.00 0.00 32 1018.7
20240221143027 43 218 3.5 9.6 0.00 0.00 0.00 35 1018.8
20240221142520 42 235 1.7 4.3 0.00 0.00 0.00 35 1018.7
20240221142020 42 254 1.7 4.3 0.00 0.00 0.00 36 1018.7
20240221141517 41 206 0.9 2.6 0.00 0.00 0.00 38 1018.7
20240221141016 41 107 0.0 2.6 0.00 0.00 0.00 37 1018.6
20240221140515 41 65 0.0 1.7 0.00 0.00 0.00 39 1018.7
20240221140015 41 65 0.0 3.5 0.00 0.00 0.00 40 1018.7
20240221135514 42 225 0.0 1.7 0.00 0.00 0.00 39 1018.7
20240221135014 42 225 0.0 3.5 0.00 0.00 0.00 38 1018.7
20240221134514 42 218 0.0 5.2 0.00 0.00 0.00 38 1018.7
20240221134017 42 240 2.6 5.2 0.00 0.00 0.00 38 1018.7
20240221133517 42 226 1.7 7.8 0.00 0.00 0.00 38 1018.7
20240221133018 42 248 3.5 7.8 0.00 0.00 0.00 37 1018.5
20240221132514 43 235 1.7 9.6 0.00 0.00 0.00 37 1018.6
20240221132012 43 217 5.2 13.0 0.00 0.00 0.00 37 1018.6
20240221131511 43 240 6.1 13.0 0.00 0.00 0.00 36 1018.8
20240221131011 43 211 6.1 15.6 0.00 0.00 0.00 37 1018.8
20240221130512 43 226 7.0 15.6 0.00 0.00 0.00 38 1018.8
20240221130011 43 254 5.2 11.3 0.00 0.00 0.00 38 1018.9
20240221125510 43 220 6.1 11.3 0.00 0.00 0.00 38 1018.8
20240221125010 43 230 6.1 11.3 0.00 0.00 0.00 38 1018.8
20240221124509 43 240 7.8 11.3 0.00 0.00 0.00 38 1018.7
20240221124009 43 244 5.2 13.0 0.00 0.00 0.00 39 1018.7
20240221123508 43 224 7.0 14.8 0.00 0.00 0.00 39 1018.9
20240221123007 43 230 9.6 14.8 0.00 0.00 0.00 40 1018.8
20240221122506 43 171 7.0 15.6 0.00 0.00 0.00 40 1018.8
20240221122005 43 202 8.7 15.6 0.00 0.00 0.00 41 1018.9
20240221121505 43 189 7.8 14.8 0.00 0.00 0.00 41 1019.1
20240221121004 43 235 7.8 16.5 0.00 0.00 0.00 41 1019.1
20240221120506 43 240 10.4 16.5 0.00 0.00 0.00 41 1019.1
20240221120004 43 198 8.7 19.1 0.00 0.00 0.00 42 1019.1
20240221115506 43 246 10.4 19.1 0.00 0.00 0.00 42 1019.0
20240221115003 43 225 9.6 15.6 0.00 0.00 0.00 43 1019.1
20240221114501 42 279 7.0 15.6 0.00 0.00 0.00 43 1019.2
20240221114100 42 235 9.6 15.6 0.00 0.00 0.00 46 1019.4
20240221113559 41 1 3.5 9.6 0.00 0.00 0.00 48 1019.4
20240221113058 41 275 2.6 9.6 0.00 0.00 0.00 50 1019.5
20240221112556 40 69 0.0 4.3 0.00 0.00 0.00 53 1019.5
20240221112057 40 142 0.9 5.2 0.00 0.00 0.00 53 1019.5
20240221111600 40 41 0.0 4.3 0.00 0.00 0.00 53 1019.5
20240221111055 40 41 1.7 4.3 0.00 0.00 0.00 53 1019.8
20240221110555 41 109 0.0 2.6 0.00 0.00 0.00 52 1019.7
20240221110056 41 109 0.0 5.2 0.00 0.00 0.00 50 1019.8
20240221105555 40 93 2.6 5.2 0.00 0.00 0.00 52 1019.8
20240221105057 40 67 0.0 5.2 0.00 0.00 0.00 53 1020.0